Tracking 30102 objects as of 12-Dec-2024
HD Live streaming from Space Station
objects crossing your sky now

COSMOS 1275 DEB

Track COSMOS 1275 DEB now!
10-day predictions


NORAD ID: 12746
Int'l Code: 1981-053CP
Perigee: 790.9 km
Apogee: 842.6 km
Inclination: 82.9 °
Period: 101.1 minutes
Semi major axis: 7187 km
RCS: 0.0761 m2 (small)
Launch date: June 4, 1981
Source: Commonwealth of Independent States (former USSR) (CIS)
Launch site: PLESETSK MISSILE AND SPACE COMPLEX (PKMTR)

Note: This is SATELLITE DEBRIS
Your satellite tracking list
Your tracking list is empty




NASA's NSSDC Master Catalog

Two Line Element Set (TLE):
1 12746U 81053CP  24346.72932150  .00005889  00000-0  25086-2 0  9998
2 12746  82.9389 240.3826 0035980 142.3320 218.0394 14.24665552208216
Source of the keplerian elements: AFSPC